When you browse on this site, cookies collect data to enhance your experience and personalize the content and advertising you see.
Visit our Privacy Policy to learn more. By continuing to use the site, you agree to this use of cookies and data.
  • In Hungary
  • List of Countries
  • For 7 days
  • Water Temperature
  • Weather Map
  • News
  • Weather Widgets
  • user-avatar
    Login

    Hourly Weather Er Reina

    Today, 25 August, Sunday

    Time Temperature Precipitation Wind Pressure Humidity
    00:00 +24°C° 0 mm 1 mps 728 mmHg 87%
    01:00 +24°C° 0 mm 1 mps 728 mmHg 88%
    02:00 +23°C° 0 mm 1 mps 728 mmHg 88%
    03:00 +21°C° 0 mm 0 mps 728 mmHg 89%
    04:00 +21°C° 0 mm 0 mps 728 mmHg 90%
    05:00 +21°C° 0 mm 0 mps 728 mmHg 91%
    06:00 +25°C° 0 mm 1 mps 729 mmHg 81%
    07:00 +27°C° 0 mm 1 mps 729 mmHg 71%
    08:00 +29°C° 0 mm 1 mps 730 mmHg 62%
    09:00 +31°C° 0 mm 2 mps 730 mmHg 54%
    10:00 +34°C° 0 mm 3 mps 730 mmHg 46%
    11:00 +36°C° 0 mm 3 mps 730 mmHg 39%
    12:00 +36°C° 0 mm 4 mps 729 mmHg 39%
    13:00 +36°C° 0 mm 5 mps 729 mmHg 40%
    14:00 +36°C° 0 mm 6 mps 729 mmHg 40%
    15:00 +35°C° 0 mm 6 mps 729 mmHg 43%
    16:00 +34°C° 0 mm 5 mps 728 mmHg 46%
    17:00 +32°C° 0 mm 5 mps 728 mmHg 49%
    18:00 +29°C° 0 mm 4 mps 728 mmHg 60%
    19:00 +27°C° 0 mm 3 mps 728 mmHg 71%
    20:00 +25°C° 0 mm 2 mps 728 mmHg 82%
    21:00 +24°C° 0 mm 2 mps 728 mmHg 83%
    22:00 +24°C° 0 mm 1 mps 728 mmHg 84%
    23:00 +23°C° 0 mm 1 mps 728 mmHg 85%

    Tomorrow, 26 August, Monday

    Time Temperature Precipitation Wind Pressure Humidity
    00:00 +23°C° 0 mm 1 mps 728 mmHg 84%
    01:00 +21°C° 0 mm 0 mps 728 mmHg 84%
    02:00 +20°C° 0 mm 0 mps 728 mmHg 83%
    03:00 +20°C° 0 mm 0 mps 728 mmHg 84%
    04:00 +20°C° 0 mm 0 mps 728 mmHg 84%
    05:00 +20°C° 0 mm 0 mps 728 mmHg 85%
    06:00 +24°C° 0 mm 1 mps 728 mmHg 75%
    07:00 +27°C° 0 mm 1 mps 729 mmHg 64%
    08:00 +29°C° 0 mm 1 mps 729 mmHg 54%
    09:00 +31°C° 0 mm 2 mps 730 mmHg 48%
    10:00 +34°C° 0 mm 2 mps 730 mmHg 41%
    11:00 +36°C° 0 mm 3 mps 730 mmHg 34%
    12:00 +36°C° 0 mm 4 mps 730 mmHg 34%
    13:00 +36°C° 0 mm 5 mps 729 mmHg 33%
    14:00 +36°C° 0 mm 6 mps 729 mmHg 32%
    15:00 +35°C° 0 mm 6 mps 729 mmHg 36%
    16:00 +34°C° 0 mm 5 mps 728 mmHg 39%
    17:00 +32°C° 0 mm 5 mps 728 mmHg 43%
    18:00 +29°C° 0 mm 4 mps 728 mmHg 54%
    19:00 +27°C° 0 mm 3 mps 729 mmHg 64%
    20:00 +25°C° 0 mm 2 mps 729 mmHg 75%
    21:00 +24°C° 0 mm 2 mps 729 mmHg 78%
    22:00 +23°C° 0 mm 1 mps 729 mmHg 80%
    23:00 +23°C° 0 mm 1 mps 729 mmHg 82%

    Day after tomorrow, 27 August, Tuesday

    Time Temperature Precipitation Wind Pressure Humidity
    00:00 +23°C° 0 mm 1 mps 728 mmHg 82%
    01:00 +22°C° 0 mm 1 mps 728 mmHg 82%
    02:00 +22°C° 0 mm 1 mps 728 mmHg 82%
    03:00 +22°C° 0 mm 1 mps 728 mmHg 83%
    04:00 +22°C° 0 mm 1 mps 728 mmHg 84%
    05:00 +22°C° 0 mm 1 mps 728 mmHg 84%
    06:00 +24°C° 0 mm 1 mps 729 mmHg 75%
    07:00 +26°C° 0 mm 1 mps 729 mmHg 65%
    08:00 +29°C° 0 mm 2 mps 729 mmHg 55%
    09:00 +30°C° 0 mm 2 mps 729 mmHg 49%
    10:00 +33°C° 0 mm 3 mps 730 mmHg 43%
    11:00 +35°C° 0 mm 3 mps 730 mmHg 37%
    12:00 +35°C° 0 mm 4 mps 729 mmHg 38%
    13:00 +35°C° 0 mm 5 mps 729 mmHg 39%
    14:00 +35°C° 0 mm 7 mps 729 mmHg 39%
    15:00 +34°C° 0 mm 6 mps 728 mmHg 44%
    16:00 +33°C° 0 mm 6 mps 728 mmHg 48%
    17:00 +30°C° 0 mm 5 mps 728 mmHg 53%
    18:00 +29°C° 0 mm 4 mps 728 mmHg 63%
    19:00 +27°C° 0 mm 3 mps 728 mmHg 74%
    20:00 +25°C° 0 mm 2 mps 728 mmHg 85%
    21:00 +24°C° 0 mm 2 mps 728 mmHg 86%
    22:00 +24°C° 0 mm 1 mps 728 mmHg 88%
    23:00 +24°C° 0 mm 1 mps 728 mmHg 89%

    28 August, Wednesday

    Time Temperature Precipitation Wind Pressure Humidity
    00:00 +23°C° 0 mm 1 mps 728 mmHg 90%
    01:00 +23°C° 0 mm 1 mps 728 mmHg 90%
    02:00 +21°C° 0 mm 0 mps 728 mmHg 91%
    03:00 +23°C° 0 mm 1 mps 728 mmHg 91%
    04:00 +22°C° 0 mm 1 mps 728 mmHg 92%
    05:00 +22°C° 0 mm 1 mps 728 mmHg 92%
    06:00 +24°C° 0 mm 1 mps 728 mmHg 84%
    07:00 +26°C° 0 mm 1 mps 728 mmHg 75%
    08:00 +28°C° 0 mm 1 mps 728 mmHg 66%
    09:00 +30°C° 0 mm 2 mps 728 mmHg 58%
    10:00 +33°C° 0 mm 3 mps 729 mmHg 50%
    11:00 +35°C° 0 mm 3 mps 729 mmHg 42%
    12:00 +35°C° 0 mm 4 mps 728 mmHg 43%
    13:00 +35°C° 0 mm 5 mps 728 mmHg 44%
    14:00 +35°C° 0 mm 6 mps 727 mmHg 45%
    15:00 +34°C° 0 mm 6 mps 727 mmHg 50%
    16:00 +32°C° 0 mm 5 mps 727 mmHg 55%
    17:00 +30°C° 0 mm 5 mps 727 mmHg 61%
    18:00 +28°C° 0 mm 4 mps 727 mmHg 70%
    19:00 +27°C° 0 mm 3 mps 727 mmHg 79%
    20:00 +25°C° 0 mm 2 mps 727 mmHg 88%
    21:00 +25°C° 0 mm 2 mps 727 mmHg 89%
    22:00 +24°C° 0 mm 2 mps 728 mmHg 91%
    23:00 +24°C° 0 mm 1 mps 728 mmHg 92%

    29 August, Thursday

    Time Temperature Precipitation Wind Pressure Humidity
    00:00 +24°C° 0 mm 1 mps 727 mmHg 92%
    01:00 +24°C° 0 mm 1 mps 727 mmHg 92%
    02:00 +23°C° 0 mm 1 mps 727 mmHg 93%
    03:00 +23°C° 0 mm 1 mps 727 mmHg 93%
    04:00 +23°C° 0 mm 1 mps 727 mmHg 94%
    05:00 +23°C° 0 mm 1 mps 727 mmHg 94%
    06:00 +25°C° 0 mm 1 mps 728 mmHg 85%
    07:00 +27°C° 0 mm 1 mps 728 mmHg 76%
    08:00 +28°C° 0 mm 2 mps 728 mmHg 67%
    09:00 +30°C° 0 mm 2 mps 728 mmHg 59%
    10:00 +33°C° 0 mm 3 mps 728 mmHg 50%
    11:00 +35°C° 0 mm 3 mps 728 mmHg 42%
    12:00 +35°C° 0 mm 4 mps 728 mmHg 43%
    13:00 +35°C° 0 mm 5 mps 727 mmHg 45%
    14:00 +35°C° 0 mm 7 mps 727 mmHg 46%
    15:00 +34°C° 0 mm 6 mps 727 mmHg 50%
    16:00 +32°C° 0 mm 6 mps 727 mmHg 55%
    17:00 +30°C° 0 mm 5 mps 727 mmHg 59%
    18:00 +28°C° 0 mm 4 mps 727 mmHg 69%
    19:00 +26°C° 0 mm 3 mps 727 mmHg 79%
    20:00 +25°C° 0 mm 2 mps 727 mmHg 88%
    21:00 +24°C° 0 mm 2 mps 727 mmHg 89%
    22:00 +24°C° 0 mm 2 mps 727 mmHg 90%
    23:00 +24°C° 0 mm 1 mps 727 mmHg 91%

    30 August, Friday

    Time Temperature Precipitation Wind Pressure Humidity
    00:00 +24°C° 0 mm 1 mps 727 mmHg 91%
    01:00 +23°C° 0 mm 1 mps 727 mmHg 91%
    02:00 +23°C° 0 mm 1 mps 727 mmHg 91%
    03:00 +23°C° 0 mm 1 mps 727 mmHg 91%
    04:00 +23°C° 0 mm 1 mps 727 mmHg 91%
    05:00 +20°C° 0 mm 0 mps 727 mmHg 91%
    06:00 +24°C° 0 mm 1 mps 727 mmHg 81%
    07:00 +26°C° 0 mm 1 mps 728 mmHg 72%
    08:00 +28°C° 0 mm 1 mps 728 mmHg 63%
    09:00 +30°C° 0 mm 2 mps 728 mmHg 55%
    10:00 +33°C° 0 mm 3 mps 728 mmHg 47%
    11:00 +35°C° 0 mm 3 mps 729 mmHg 39%
    12:00 +35°C° 0 mm 5 mps 728 mmHg 40%
    13:00 +35°C° 0 mm 6 mps 728 mmHg 41%
    14:00 +35°C° 0 mm 7 mps 728 mmHg 42%
    15:00 +34°C° 0 mm 7 mps 727 mmHg 47%
    16:00 +32°C° 0 mm 6 mps 727 mmHg 51%
    17:00 +30°C° 0 mm 6 mps 727 mmHg 55%
    18:00 +28°C° 0 mm 5 mps 727 mmHg 65%
    19:00 +26°C° 0 mm 4 mps 727 mmHg 76%
    20:00 +24°C° 0 mm 3 mps 728 mmHg 86%
    21:00 +24°C° 0 mm 2 mps 728 mmHg 87%
    22:00 +24°C° 0 mm 2 mps 728 mmHg 88%
    23:00 +23°C° 0 mm 2 mps 727 mmHg 89%
    Show more